Flag for U.S.A. Weather past 2 weeks in Canton, Ohio, U.S.A.

40 °F

Partly sunny.

Feels Like: 34 °F
Forecast: 33 / 45 °F
Wind: 8 mph from North

Location: Akron-Canton Regional Airport

Current Time: Nov 29, 2015 at 12:58:55 PM

Latest Report: Nov 29, 2015 at 11:51 AM

Visibility: 10 mi

Pressure: 30.31 "Hg

Humidity: 68%

Dew point: 30 °F

Location of CantonLocation

Historic Weather in Canton — Graph


Canton temperature yesterday

Maximum temperature yesterday: 44 °F (at 12:51 AM)
Minimum temperature yesterday: 38 °F (at 11:51 PM)
Average temperature yesterday: 42 °F

Past Weeks' High & Low Weather Summary

High70 °F (Nov 18, 2:51 PM)93% (Nov 28, 5:51 PM)30.58 "Hg (Nov 28, 5:51 PM)
Low19 °F (Nov 23, 5:51 AM)18% (Nov 20, 12:51 PM)29.70 "Hg (Nov 21, 5:51 PM)
Average46 °F57%30.23 "Hg
* Reported Nov 14 10:51 AM — Nov 29 10:51 AM, Canton, Weather by CustomWeather, © 2015

Note: Actual official high and low records may vary slightly from our data, if they occured in-between our weather recording intervals... More about our weather records


Canton weather history for previous 24 hours

Time TempWeatherWind HumidityBarometerVisibility
10:51 AM
Sun, Nov 29
39 °FPartly sunny.9 mph73%30.33 "Hg10 mi
9:51 AM36 °FPartly sunny.7 mph75%30.34 "Hg10 mi
8:58 AM35 °FOvercast.8 mph78%30.31 "Hg10 mi
8:00 AM34 °FPartly sunny.9 mph82%30.28 "Hg10 mi
7:03 AM35 °FMostly cloudy.7 mph78%30.27 "Hg10 mi
6:51 AM35 °FPartly cloudy.7 mph78%30.30 "Hg10 mi
5:51 AM35 °FMostly cloudy.7 mph82%30.29 "Hg10 mi
4:51 AM36 °FOvercast.9 mph82%30.27 "Hg10 mi
3:51 AM36 °FMostly cloudy.7 mph85%30.27 "Hg10 mi
2:51 AM36 °FPassing clouds.7 mph85%30.28 "Hg10 mi
1:51 AM37 °FMostly cloudy.8 mph82%30.27 "Hg10 mi
12:51 AM37 °FMostly cloudy.6 mph86%30.29 "Hg10 mi
11:51 PM
Sat, Nov 28
38 °FOvercast.8 mph83%30.27 "Hg10 mi
10:51 PM39 °FMostly cloudy.8 mph86%30.29 "Hg7 mi
9:51 PM40 °FMostly cloudy.7 mph83%30.28 "Hg8 mi
9:01 PM40 °FFog.6 mph83%30.26 "Hg6 mi
7:51 PM39 °FFog.8 mph93%30.28 "Hg1 mi
5:51 PM40 °FFog.13 mph93%30.27 "Hg2 mi
4:51 PM41 °FDrizzle. Low clouds.8 mph89%30.26 "Hg6 mi
3:51 PM42 °FLow clouds.10 mph85%30.25 "Hg10 mi
2:51 PM43 °FLight rain. Low clouds.9 mph86%30.24 "Hg8 mi
1:51 PM42 °FLight rain. Mostly cloudy.8 mph89%30.25 "Hg5 mi
12:51 PM43 °FLight rain. Mostly cloudy.6 mph86%30.26 "Hg5 mi
Weather by CustomWeather, © 2015

See weather overviewHow to use our weather pages